Starlink 32125

operational
NORAD ID: 60260 Int'l Des: 2024-131 Owner: SPXS Country: US Constellation: starlink
LEOCIRCULAR

About Starlink 32125

Description loading...

Live Position

Loading 3D Globe...

Upcoming Passes

Altitude History

Altitude vs Time

uPlot chart will show altitude changes over time

Two-Line Element Set

1 60260U 24131F 25304.69558347 -.00004087 00000-0 -12612-3 0 9992
2 60260 53.1615 291.2696 0001563 87.6147 272.5033 15.30154902 71976
Epoch: Oct 31, 2025 • Age: 8 hours

Current Status

Altitude 477.4 km
Velocity 7.63 km/s
Sub-Earth Point 36.49°N, 88.51°W
Launch Date Jul 27, 2024
Age 1.2 years
Type internet

Technical Details

Classification Payload
Mass 730.00 kg
Dry Mass 700.00 kg
Total Mass 730.00 kg
Length 0.30 m
Diameter 4.10 m
Span 29.00 m
Shape Box + pan
Manufacturer SPXS
Bus Type Starlink V2M
Phase Status In Orbit
Owner/State SPXS/US

Large Constellations

Loading constellations...